Location: Dammartin
(48.9032°N, 1.6195°E)
Time: 21:40:19
(UTC+00:00)

Cosmos 1954 Rocket - Pass Details

Date: 03 February 2023
Orbit: 752 x 780 km, 74.0° (Epoch: 21 March)

Event Time Altitude Azimuth Distance (km) Brightness Sun altitude
Rises 18:10:50 0° 197° (SSW) 3,230 7.6 -12.9°
Reaches altitude 10° 18:13:12 10° 196° (SSW) 2,304 6.8 -13.3°
Maximum altitude 18:18:25 78° 110° (ESE) 787 3.9 -14.1°
Drops below altitude 10° 18:23:38 10° 26° (NNE) 2,301 6.2 -15.0°
Enters shadow 18:24:59 - 25° (NNE) 2,826 6.6 -15.2°
